When you browse on this site, cookies collect data to enhance your experience and personalize the content and advertising you see.
Visit our Privacy Policy to learn more. By continuing to use the site, you agree to this use of cookies and data.
  • In United Kingdom
  • List of Countries
  • For 7 days
  • Water Temperature
  • Satellite Maps
  • Weather Map
  • Weather Widgets
  • user-avatar
    Login

    Hourly Weather Mbandaka

    Today, 21 May, Tuesday

    Time Temperature Precipitation Wind Pressure Humidity
    00:00 +25°C° 0 mm 0 mps 731 mmHg 78%
    01:00 +24°C° 0 mm 0 mps 730 mmHg 79%
    02:00 +24°C° 0 mm 0 mps 730 mmHg 80%
    03:00 +24°C° 0 mm 0 mps 730 mmHg 81%
    04:00 +24°C° 0 mm 0 mps 730 mmHg 81%
    05:00 +24°C° 0 mm 0 mps 731 mmHg 79%
    06:00 +25°C° 0 mm 0 mps 731 mmHg 77%
    07:00 +26°C° 0 mm 0 mps 731 mmHg 75%
    08:00 +28°C° 0.7 mm 0 mps 732 mmHg 72%
    09:00 +30°C° 0.7 mm 0 mps 732 mmHg 68%
    10:00 +32°C° 0.7 mm 0 mps 732 mmHg 64%
    11:00 +35°C° 0.7 mm 1 mps 731 mmHg 56%
    12:00 +36°C° 0.7 mm 1 mps 731 mmHg 48%
    13:00 +37°C° 0.7 mm 1 mps 731 mmHg 40%
    14:00 +37°C° 0 mm 1 mps 730 mmHg 42%
    15:00 +36°C° 0 mm 1 mps 730 mmHg 44%
    16:00 +33°C° 0 mm 0 mps 729 mmHg 47%
    17:00 +33°C° 0 mm 1 mps 729 mmHg 54%
    18:00 +31°C° 0 mm 1 mps 729 mmHg 61%
    19:00 +29°C° 0 mm 1 mps 729 mmHg 68%
    20:00 +26°C° 0.6 mm 0 mps 730 mmHg 74%
    21:00 +25°C° 0.6 mm 0 mps 730 mmHg 80%
    22:00 +24°C° 0.6 mm 0 mps 730 mmHg 86%
    23:00 +24°C° 0 mm 0 mps 730 mmHg 87%

    Tomorrow, 22 May, Wednesday

    Time Temperature Precipitation Wind Pressure Humidity
    00:00 +24°C° 0 mm 0 mps 730 mmHg 87%
    01:00 +24°C° 0 mm 0 mps 730 mmHg 88%
    02:00 +24°C° 0.3 mm 0 mps 730 mmHg 90%
    03:00 +23°C° 0.3 mm 0 mps 730 mmHg 92%
    04:00 +23°C° 0.3 mm 0 mps 730 mmHg 94%
    05:00 +23°C° 0.1 mm 0 mps 730 mmHg 93%
    06:00 +24°C° 0.1 mm 0 mps 731 mmHg 92%
    07:00 +24°C° 0.1 mm 0 mps 731 mmHg 90%
    08:00 +27°C° 0.3 mm 0 mps 732 mmHg 80%
    09:00 +31°C° 0.3 mm 1 mps 732 mmHg 70%
    10:00 +33°C° 0.3 mm 1 mps 732 mmHg 60%
    11:00 +34°C° 1.9 mm 1 mps 732 mmHg 59%
    12:00 +34°C° 1.9 mm 1 mps 731 mmHg 58%
    13:00 +34°C° 1.9 mm 1 mps 730 mmHg 57%
    14:00 +35°C° 0 mm 1 mps 730 mmHg 54%
    15:00 +35°C° 0 mm 1 mps 729 mmHg 52%
    16:00 +33°C° 0 mm 0 mps 729 mmHg 49%
    17:00 +32°C° 4.7 mm 1 mps 729 mmHg 64%
    18:00 +29°C° 4.7 mm 1 mps 729 mmHg 79%
    19:00 +26°C° 4.7 mm 1 mps 729 mmHg 94%
    20:00 +26°C° 3 mm 1 mps 730 mmHg 94%
    21:00 +26°C° 3 mm 1 mps 730 mmHg 95%
    22:00 +26°C° 3 mm 1 mps 731 mmHg 95%
    23:00 +26°C° 0.3 mm 1 mps 730 mmHg 95%

    Day after tomorrow, 23 May, Thursday

    Time Temperature Precipitation Wind Pressure Humidity
    00:00 +25°C° 0.3 mm 1 mps 730 mmHg 94%
    01:00 +25°C° 0.3 mm 1 mps 730 mmHg 93%
    02:00 +25°C° 0 mm 1 mps 730 mmHg 94%
    03:00 +25°C° 0 mm 1 mps 730 mmHg 96%
    04:00 +24°C° 0 mm 1 mps 730 mmHg 97%
    05:00 +25°C° 0 mm 1 mps 730 mmHg 95%
    06:00 +25°C° 0 mm 1 mps 731 mmHg 93%
    07:00 +26°C° 0 mm 1 mps 732 mmHg 92%
    08:00 +28°C° 0.1 mm 1 mps 732 mmHg 79%
    09:00 +31°C° 0.1 mm 1 mps 732 mmHg 67%
    10:00 +34°C° 0.1 mm 1 mps 732 mmHg 54%
    11:00 +34°C° 0.5 mm 1 mps 732 mmHg 53%
    12:00 +35°C° 0.5 mm 1 mps 731 mmHg 51%
    13:00 +36°C° 0.5 mm 1 mps 731 mmHg 49%
    14:00 +34°C° 1.4 mm 2 mps 730 mmHg 63%
    15:00 +30°C° 1.4 mm 2 mps 730 mmHg 76%
    16:00 +27°C° 1.4 mm 2 mps 729 mmHg 90%
    17:00 +26°C° 1 mm 2 mps 730 mmHg 92%
    18:00 +26°C° 1 mm 1 mps 730 mmHg 93%
    19:00 +26°C° 1 mm 1 mps 731 mmHg 95%
    20:00 +25°C° 0.2 mm 1 mps 731 mmHg 96%
    21:00 +25°C° 0.2 mm 1 mps 731 mmHg 96%
    22:00 +25°C° 0.2 mm 1 mps 731 mmHg 97%
    23:00 +25°C° 0 mm 1 mps 731 mmHg 97%

    24 May, Friday

    Time Temperature Precipitation Wind Pressure Humidity
    00:00 +25°C° 0 mm 1 mps 731 mmHg 98%
    01:00 +23°C° 0 mm 0 mps 730 mmHg 98%
    02:00 +23°C° 0 mm 0 mps 730 mmHg 98%
    03:00 +22°C° 0 mm 0 mps 730 mmHg 98%
    04:00 +22°C° 0 mm 0 mps 730 mmHg 98%
    05:00 +23°C° 0 mm 0 mps 731 mmHg 97%
    06:00 +23°C° 0 mm 0 mps 731 mmHg 96%
    07:00 +23°C° 0 mm 0 mps 732 mmHg 95%
    08:00 +24°C° 0.2 mm 0 mps 732 mmHg 92%
    09:00 +25°C° 0.2 mm 0 mps 733 mmHg 89%
    10:00 +26°C° 0.2 mm 0 mps 733 mmHg 86%
    11:00 +27°C° 0.1 mm 0 mps 732 mmHg 80%
    12:00 +30°C° 0.1 mm 1 mps 731 mmHg 74%
    13:00 +31°C° 0.1 mm 1 mps 730 mmHg 68%
    14:00 +32°C° 0 mm 1 mps 730 mmHg 64%
    15:00 +32°C° 0 mm 1 mps 730 mmHg 60%
    16:00 +33°C° 0 mm 1 mps 729 mmHg 57%
    17:00 +31°C° 0.2 mm 1 mps 730 mmHg 66%
    18:00 +29°C° 0.2 mm 1 mps 730 mmHg 76%
    19:00 +27°C° 0.2 mm 1 mps 730 mmHg 86%
    20:00 +26°C° 0.4 mm 1 mps 731 mmHg 88%
    21:00 +26°C° 0.4 mm 1 mps 731 mmHg 91%
    22:00 +25°C° 0.4 mm 1 mps 732 mmHg 93%
    23:00 +23°C° 2.6 mm 0 mps 731 mmHg 95%

    25 May, Saturday

    Time Temperature Precipitation Wind Pressure Humidity
    00:00 +23°C° 2.6 mm 0 mps 731 mmHg 96%
    01:00 +22°C° 2.6 mm 0 mps 731 mmHg 98%
    02:00 +22°C° 0.2 mm 0 mps 731 mmHg 98%
    03:00 +22°C° 0.2 mm 0 mps 731 mmHg 98%
    04:00 +22°C° 0.2 mm 0 mps 731 mmHg 98%
    05:00 +23°C° 0 mm 0 mps 731 mmHg 97%
    06:00 +23°C° 0 mm 0 mps 732 mmHg 96%
    07:00 +23°C° 0 mm 0 mps 732 mmHg 96%
    08:00 +24°C° 0 mm 0 mps 732 mmHg 92%
    09:00 +25°C° 0 mm 0 mps 733 mmHg 87%
    10:00 +26°C° 0 mm 0 mps 733 mmHg 83%
    11:00 +27°C° 0 mm 0 mps 732 mmHg 79%
    12:00 +29°C° 0 mm 1 mps 731 mmHg 75%
    13:00 +30°C° 0 mm 1 mps 730 mmHg 71%
    14:00 +31°C° 0 mm 1 mps 730 mmHg 63%
    15:00 +30°C° 0 mm 0 mps 730 mmHg 56%
    16:00 +32°C° 0 mm 0 mps 729 mmHg 48%
    17:00 +29°C° 0.1 mm 0 mps 730 mmHg 57%
    18:00 +27°C° 0.1 mm 0 mps 730 mmHg 67%
    19:00 +25°C° 0.1 mm 0 mps 730 mmHg 76%
    20:00 +24°C° 0.2 mm 0 mps 730 mmHg 78%
    21:00 +24°C° 0.2 mm 0 mps 730 mmHg 81%
    22:00 +23°C° 0.2 mm 0 mps 731 mmHg 83%
    23:00 +23°C° 0 mm 0 mps 730 mmHg 85%

    26 May, Sunday

    Time Temperature Precipitation Wind Pressure Humidity
    00:00 +23°C° 0 mm 0 mps 730 mmHg 86%
    01:00 +23°C° 0 mm 0 mps 730 mmHg 87%
    02:00 +24°C° 0.8 mm 1 mps 730 mmHg 90%
    03:00 +24°C° 0.8 mm 1 mps 730 mmHg 93%
    04:00 +23°C° 0.8 mm 1 mps 730 mmHg 96%
    05:00 +24°C° 0.4 mm 1 mps 730 mmHg 95%
    06:00 +23°C° 0.4 mm 0 mps 731 mmHg 95%
    07:00 +23°C° 0.4 mm 0 mps 731 mmHg 94%
    08:00 +26°C° 0.1 mm 0 mps 732 mmHg 82%
    09:00 +31°C° 0.1 mm 1 mps 732 mmHg 69%
    10:00 +34°C° 0.1 mm 1 mps 732 mmHg 56%
    11:00 +35°C° 0 mm 1 mps 731 mmHg 51%
    12:00 +36°C° 0 mm 1 mps 730 mmHg 45%
    13:00 +39°C° 0 mm 1 mps 729 mmHg 39%
    14:00 +36°C° 0 mm 1 mps 729 mmHg 45%
    15:00 +33°C° 0 mm 0 mps 729 mmHg 51%
    16:00 +31°C° 0 mm 0 mps 729 mmHg 57%
    17:00 +30°C° 0 mm 0 mps 729 mmHg 61%
    18:00 +28°C° 0 mm 0 mps 729 mmHg 64%
    19:00 +27°C° 0 mm 0 mps 729 mmHg 68%
    20:00 +28°C° 0 mm 1 mps 729 mmHg 70%
    21:00 +28°C° 0 mm 1 mps 730 mmHg 72%
    22:00 +27°C° 0 mm 1 mps 730 mmHg 74%
    23:00 +26°C° 0.3 mm 1 mps 730 mmHg 79%
    Show more